EW7710 St Petersburg FL US current weather conditions

sailwx.info

Wind from 026

Air temperature 7.2° C
Dewpoint 5.0° C

Last reported at 2018-Dec-12 03:02 UTC.
Time now 2018-Dec-12 03:41 UTC

Location: N 27°47' W 082°43'.
View on Google Maps.

See reports from other nearby stations

  
Tides and Currents Weather Stations Pressure Air Temp Water Temp Dewpoint Dewpoint Depression Visibility Wind Speed Wind Dir Waves Ship Positions
date/time (UTC)wind fromknots sea level pressurealtimeterstation pressurevisibilityair tempwater tempwave heightnotes
2018-Dec-12 03:02 026 7.2
2018-Dec-12 02:45 028 7.2
2018-Dec-12 02:30 015 7.2
2018-Dec-12 02:00 355 7.8
2018-Dec-12 01:45 355 8.3
2018-Dec-12 01:16 355 8.3
2018-Dec-12 01:00 327 8.3
2018-Dec-12 00:31 331 8.9
2018-Dec-12 00:16 331 9.4
2018-Dec-11 23:46 344 10.0
2018-Dec-11 23:30 009 0 gusting 4 10.0
2018-Dec-11 23:02 350 0 gusting 4 10.6
2018-Dec-11 22:45 337 3 gusting 7 11.1
2018-Dec-11 22:15 344 3 gusting 8 11.7
2018-Dec-11 22:00 326 3 gusting 8 12.8
2018-Dec-11 21:31 309 3 gusting 8 13.3
2018-Dec-11 21:15 286 2 gusting 9 13.9
2018-Dec-11 20:46 319 1 gusting 8 13.9
2018-Dec-11 20:30 336 5 gusting 11 13.9
2018-Dec-11 20:01 033 4 gusting 13 14.4
2018-Dec-11 19:45 334 5 gusting 14 13.9
2018-Dec-11 19:16 347 8 gusting 16 13.9
2018-Dec-11 19:00 019 6 gusting 13 13.9
2018-Dec-11 18:47 360 5 gusting 16 13.9
2018-Dec-11 18:30 298 5 gusting 15 13.9
2018-Dec-11 18:15 328 7 gusting 15 13.9
2018-Dec-11 17:48 355 7 gusting 15 13.9
2018-Dec-11 17:31 327 6 gusting 15 13.9
2018-Dec-11 17:02 305 3 gusting 15 13.3
2018-Dec-11 16:45 338 6 gusting 11 12.8
2018-Dec-11 16:16 360 4 gusting 10 12.2
2018-Dec-11 15:47 046 5 gusting 11 11.7
2018-Dec-11 15:30 009 4 gusting 9 11.1
2018-Dec-11 15:01 010 3 gusting 7 12.2
2018-Dec-11 14:45 037 3 gusting 9 12.2
2018-Dec-11 14:15 027 5 gusting 10 11.7
2018-Dec-11 13:46 355 3 gusting 11 12.2
2018-Dec-11 13:18 351 4 gusting 10 10.6
2018-Dec-11 13:00 355 3 gusting 6 8.9
2018-Dec-11 12:30 360 7.8
2018-Dec-11 12:16 355 1 gusting 4 7.2
2018-Dec-11 11:47 028 7.8
2018-Dec-11 11:30 028 7.8
2018-Dec-11 11:00 355 7.8
2018-Dec-11 10:32 355 0 gusting 3 8.3
2018-Dec-11 10:15 049 8.3
2018-Dec-11 09:46 110 8.3
2018-Dec-11 09:16 345 0 gusting 5 8.9
2018-Dec-11 09:00 109 0 gusting 3 9.4
2018-Dec-11 08:31 009 2 gusting 8 10.0
2018-Dec-11 08:15 051 2 gusting 4 10.0
2018-Dec-11 08:01 040 0 gusting 5 10.6
2018-Dec-11 07:46 039 0 gusting 3 10.6
2018-Dec-11 07:16 061 0 gusting 2 10.6
2018-Dec-11 06:46 044 0 gusting 2 10.6
2018-Dec-11 06:30 058 10.0
2018-Dec-11 06:01 040 0 gusting 3 10.0
2018-Dec-11 05:45 034 2 gusting 4 10.6
2018-Dec-11 05:16 062 1 gusting 3 10.6
2018-Dec-11 05:00 080 1 gusting 5 10.6
2018-Dec-11 04:31 082 1 gusting 4 11.1
2018-Dec-11 04:15 123 11.1
2018-Dec-11 03:46 030 11.1
2018-Dec-11 03:30 062 0 gusting 5 10.6
2018-Dec-11 03:00 064 1 gusting 5 11.1
2018-Dec-11 02:45 048 1 gusting 4 11.1
2018-Dec-11 02:15 024 3 gusting 6 11.1
2018-Dec-11 01:46 048 1 gusting 4 11.1
2018-Dec-11 01:30 344 1 gusting 7 11.1
2018-Dec-11 01:01 020 2 gusting 7 11.1
2018-Dec-11 00:45 338 2 gusting 5 11.7
2018-Dec-11 00:15 026 2 gusting 7 11.7
2018-Dec-11 00:00 010 1 gusting 8 11.7
2018-Dec-10 23:30 014 0 gusting 5 12.2
2018-Dec-10 23:15 026 3 gusting 8 12.2
2018-Dec-10 22:46 355 3 gusting 9 12.8
2018-Dec-10 22:16 318 1 gusting 10 13.3
2018-Dec-10 21:47 005 4 gusting 10 13.3
2018-Dec-10 21:31 311 6 gusting 12 13.9
2018-Dec-10 21:01 327 6 gusting 14 13.9
2018-Dec-10 20:45 331 6 gusting 11 13.9
2018-Dec-10 20:16 343 6 gusting 14 14.4
2018-Dec-10 20:00 336 5 gusting 14 14.4
2018-Dec-10 19:31 335 7 gusting 13 15.0
2018-Dec-10 19:15 005 7 gusting 18 15.0
2018-Dec-10 18:46 005 7 gusting 14 15.6
2018-Dec-10 18:30 360 7 gusting 14 15.6
2018-Dec-10 18:01 325 6 gusting 19 16.1
2018-Dec-10 17:16 350 6 gusting 17 15.6
2018-Dec-10 17:00 323 9 gusting 19 15.6
2018-Dec-10 16:31 332 10 gusting 16 15.0
2018-Dec-10 16:15 327 6 gusting 13 15.6
2018-Dec-10 16:01 010 7 gusting 14 16.1
2018-Dec-10 15:46 005 5 gusting 13 16.1
2018-Dec-10 15:30 325 6 gusting 12 15.6
2018-Dec-10 15:00 325 6 gusting 13 15.6
2018-Dec-10 14:30 349 3 gusting 11 15.0
2018-Dec-10 14:15 360 5 gusting 11 15.0
2018-Dec-10 13:46 055 3 gusting 9 14.4
2018-Dec-10 13:30 320 5 gusting 10 14.4
2018-Dec-10 13:01 313 5 gusting 11 14.4
2018-Dec-10 12:31 294 2 gusting 10 14.4
2018-Dec-10 12:02 327 4 gusting 11 14.4
2018-Dec-10 11:45 337 2 gusting 10 14.4
2018-Dec-10 11:17 343 5 gusting 10 14.4
2018-Dec-10 11:01 319 4 gusting 12 14.4
2018-Dec-10 10:30 344 4 gusting 10 14.4
2018-Dec-10 10:01 330 3 gusting 10 14.4
2018-Dec-10 09:45 315 5 gusting 12 14.4
2018-Dec-10 09:16 009 3 gusting 15 14.4
2018-Dec-10 05:30 334 4 gusting 13 17.8
2018-Dec-10 05:16 345 8 gusting 16 18.3
2018-Dec-10 05:00 265 6 gusting 13 18.3
2018-Dec-10 04:45 290 7 gusting 14 18.3
2018-Dec-10 04:15 311 6 gusting 14 18.9
2018-Dec-10 03:46 311 6 gusting 14 18.9
2018-Dec-10 03:30 298 8 gusting 13 18.9
2018-Dec-10 03:16 284 9 gusting 16 18.9
2018-Dec-10 03:01 269 6 gusting 14 18.9